Regional Weather Roundup
Issued by NWS Jackson, KY

Home | Current Version | Previous Version | Graphics & Text | Print | Product List | Glossary On
Versions: 1 2 3 4 5 6 7 8 9 10 11 12 13 14 15 16 17 18 19 20 21 22 23 24 25 26 27
000
ASUS43 KJKL 130610
RWRJKL

EAST KENTUCKY HOURLY WEATHER ROUNDUP
NATIONAL WEATHER SERVICE JACKSON KY
100 AM EST WED DEC 13 2017

NOTE: "FAIR" INDICATES FEW OR NO CLOUDS BELOW 12,000 FEET WITH
NO SIGNIFICANT WEATHER AND/OR OBSTRUCTIONS TO VISIBILITY.

* THESE REPORTS ARE NOT UNDER NWS QUALITY CONTROL AND MAY NOT
  REPORT WEATHER SUCH AS PRECIPITATION AND FOG.

KYZ079-080-083-085-087-088-110-112-115-119-120-130700
...EASTERN KENTUCKY...

CITY           SKY/WX    TMP DP  RH WIND       PRES   REMARKS
JACKSON        CLEAR     20   6  55 VRB3      29.97F
6HR MIN TEMP:  20; 6HR MAX TEMP:  26;

LONDON         CLEAR     20   8  60 W5        30.02F WCI  13
6HR MIN TEMP:  20; 6HR MAX TEMP:  27;

SOMERSET*      CLEAR     21   9  58 W8        30.07S WCI  12
MONTICELLO*    CLEAR     21  11  65 W6        30.08S WCI  13
6HR MIN TEMP:  21; 6HR MAX TEMP:  29;

WILLIAMSBURG*  CLEAR     23   9  54 CALM      30.04S
MIDDLESBORO*   CLEAR     24   8  50 W6        30.02F WCI  17
6HR MIN TEMP:  24; 6HR MAX TEMP:  30;

HARLAN APT*    CLEAR     23   5  46 SW3       29.98F
PIKE CO APT*     N/A     20   7  56 W8        29.95F WCI  10
BIG SANDY APT* CLEAR     22   7  53 NW3       29.97F
6HR MIN TEMP:  21; 6HR MAX TEMP:  27;

MOREHEAD APT*  CLEAR     19   5  53 W5        30.00F WCI  13
$$

KYZ035-036-041-042-044-050-067-078-099-130700
...CENTRAL KENTUCKY...

CITY           SKY/WX    TMP DP  RH WIND       PRES   REMARKS
MT STERLING*   CLEAR     19  10  68 W6        30.02F WCI  11
FLEMING/MASON* CLEAR     16   7  69 W5        30.00F WCI   8
DANVILLE*      CLEAR     23   7  50 W6        30.04F WCI  16
LEXINGTON      CLEAR     18   7  62 SW6       30.01F WCI  10
6HR MIN TEMP:  18; 6HR MAX TEMP:  26;

FRANKFORT      CLEAR     18   7  62 W5        30.02F WCI  11
6HR MIN TEMP:  18; 6HR MAX TEMP:  27;

LOUISVILLE     CLEAR     25   8  48 SW6       30.06S WCI  18
6HR MIN TEMP:  22; 6HR MAX TEMP:  28;

LEBANON*         N/A     21   9  58 SW3       30.05F
GLASGOW*       CLEAR     19  14  79 CALM      30.08F
BOWLING GREEN  CLEAR     22  12  65 CALM      30.10F
6HR MIN TEMP:  22; 6HR MAX TEMP:  31;

$$

KYZ091>093-OHZ055-061-077-WVZ005-015-034-035-042-130700
...SOUTHERN OHIO/WEST VIRGINIA...

CITY           SKY/WX    TMP DP  RH WIND       PRES   REMARKS
COVINGTON      CLEAR     18   9  68 W8        29.98F WCI   8
COLUMBUS       FLURRIES  20  14  77 W10       29.91F WCI   9
DAYTON         MOCLDY    16   9  74 W12       29.94F WCI   3
WILMINGTON     CLEAR     16   8  71 W10       29.94F WCI   4
HUNTINGTON     MOCLDY    22   9  57 NW9       29.97S WCI  12
CHARLESTON     CLOUDY    22  10  60 W9        29.93S WCI  12
PINEVILLE*       N/A     21   7  53 MISG      29.93S
BECKLEY        LGT SNOW  16   9  74 W14G23    29.79S WCI   2
BLUEFIELD      CLOUDY    15   2  56 NW15G24   29.77F WCI   0
LOGAN CO APT*    N/A     19   5  53 W6G18     29.90S WCI  11
$$

VAZ002-007-008-TNZ017-027-036-066-071-130700
...SOUTHWEST VIRGINIA/EAST TENNESSEE...

CITY           SKY/WX    TMP DP  RH WIND       PRES   REMARKS
WISE*          PTCLDY    19   9  63 W13G24    29.88S WCI   7
JONESVILLE*      N/A     25   7  46 W3        30.01F
ABINGDON*      CLEAR     23   6  47 NW10G18   29.89S WCI  13
BRISTOL        CLEAR     24   5  44 W12       29.96S WCI  13
MORRISTOWN*    CLEAR     27   9  46 NW8G14    30.00F WCI  18
SEVIERVILLE*   CLEAR     25  12  58 CALM      30.04S
KNOXVILLE      CLEAR     28  11  48 NW6       30.04F WCI  22
LAFOLLETTE*    CLEAR     27   7  43 VRB3      30.07S
OAK RIDGE      CLEAR     27   9  46 CALM      30.06F
CROSSVILLE     CLEAR     22   7  52 NW6       30.01F WCI  14
NASHVILLE      CLEAR     27   9  46 W3        30.11F
$$

...KEY TO REMARKS...
VSB - VISIBILITY IN MILES
WCI - WIND CHILL INDEX
HX  - HEAT INDEX

$$




USA.gov is the U.S. government's official web portal to all federal, state and local government web resources and services.